[[{"header":{"parameterUnit":"m.s-1","parameterCategory":1,"la1":30.2991,"la2":30.254,"lo1":-89.0895,"lo2":-89.0444,"dy":0.0017,"dx":0.0017,"nx":28,"ny":28,"refTime":"2023-07-28T03:00:00:Z","depth":0,"parameterNumber":2,"parameterNumberName":"U-component_of_WINDS"},"data":[0,0,0,0,0,0,0,0,0,0,0,0,0,0,0,0,0,0,0,0,0,0,0,0,0,0,0,0,0,0,0,0,0,0,0,0,0,0,0,0,0,0,0,0,0,0,0,0,0,0,0,0,0,0,0,0,0,0,0.8954,0.8955,0,0.9063,0.9064,0.9065,0.9081,0.908,0.9079,0.9078,0.9194,0.9198,0.9202,0,0,0,0,0,0,0,0,0,0,0,0,0,0.8765,0.8768,0.8954,0.8956,0.8957,0.9062,0.9064,0.9065,0.9081,0.908,0.9079,0.9078,0.9192,0.9197,0.9202,0,0,0,0,0,0,0,0,0,0,0,0,0,0.8858,0.8769,0.8954,0.8977,0.898,0.9062,0.9064,0.9066,0.9081,0.908,0.9078,0.9077,0.9191,0.9197,0.9203,0.927,0,0,0.9221,0.9224,0,0,0,0,0,0,0,0,0.8852,0.8865,0.8973,0.8976,0.898,0.9057,0.904,0.9134,0.9082,0.9043,0.9078,0.9076,0.915,0.9159,0.9183,0.9275,0.928,0.9222,0.9225,0.9228,0.923,0,0,0,0,0,0,0,0.8846,0.886,0.8997,0.8974,0.8978,0.8984,0.8995,0.9058,0.9104,0.9046,0.9048,0.906,0.9151,0.9177,0.9186,0.9282,0.9221,0.9227,0.9231,0.9233,0.9435,0.9437,0,0,0,0,0,0,0.8835,0.8855,0.8994,0.9,0.8911,0.8988,0.9001,0.9033,0.9103,0.9112,0.9061,0.9061,0.9167,0.9179,0.919,0.9273,0.9228,0.9234,0.9237,0.9433,0.9435,0.9437,0,0,0,0,0,0,0.883,0.8847,0.8989,0.8928,0.8946,0.8993,0.9029,0.9036,0.9062,0.9114,0.9123,0.9079,0.9167,0.9181,0.9249,0.9277,0.9236,0.9242,0.9431,0.9434,0.9436,0.944,0,0,0,0,0,0,0.8825,0.8845,0.887,0.8928,0.895,0.9046,0.9031,0.904,0.9072,0.9072,0.9133,0.9142,0.9167,0.924,0.9255,0.9285,0.9246,0.9429,0.9432,0.9436,0.9437,0.9442,0.9446,0,0,0,0,0,0.8818,0.8868,0.8872,0.8888,0.8982,0.9048,0.906,0.9086,0.9074,0.91,0.9134,0.914,0.9271,0.9247,0.9264,0.9296,0.9427,0.9432,0.9435,0.9435,0.9441,0.9446,0,0,0,0,0,0,0.8814,0.8876,0.8881,0.8951,0.8993,0.905,0.9084,0.9092,0.914,0.9138,0.917,0.9184,0.9251,0.928,0.9252,0.9364,0.9349,0.9356,0.9343,0.9349,0.9353,0.9345,0.9251,0,0,0,0,0,0.8821,0.8868,0.892,0.8977,0.8998,0.9037,0.9067,0.9083,0.913,0.9148,0.9187,0.9233,0.9285,0.9318,0.9369,0.9441,0.9455,0.9471,0.9476,0.9479,0.9485,0.9526,0.9534,0.945,0.945,0.945,0,0,0.8837,0.8876,0.8904,0.8977,0.9012,0.9061,0.9053,0.9105,0.9142,0.9157,0.9223,0.9253,0.9307,0.9377,0.941,0.9404,0.9511,0.9484,0.9486,0.9491,0.9531,0.9538,0.9545,0.9453,0.9453,0.9452,0,0,0.889,0.8924,0.8975,0.901,0.9062,0.9088,0.91,0.9156,0.9175,0.9242,0.9254,0.9299,0.9388,0.9425,0.9456,0.9522,0.9529,0.9537,0.9561,0.96,0.9606,0.9612,0.9636,0.9644,0.9544,0.9544,0.9544,0,0.8903,0.8975,0.9,0.9052,0.9084,0.9098,0.915,0.9183,0.925,0.9273,0.9264,0.9374,0.9412,0.9491,0.9507,0.9531,0.9547,0.9531,0.9603,0.9609,0.9615,0.9638,0.9647,0.9544,0.9544,0.9544,0.9544,0,0.8989,0.9039,0.9074,0.9136,0.9172,0.9224,0.9258,0.9291,0.9304,0.9331,0.9399,0.9444,0.9503,0.9523,0.9537,0.9604,0.9599,0.9596,0.9581,0.9623,0.9645,0.9654,0.9545,0.9545,0.9545,0.9545,0,0,0.9043,0.9118,0.913,0.9158,0.9217,0.9257,0.931,0.9366,0.9394,0.944,0.9485,0.9559,0.9557,0.9591,0.961,0.9644,0.9693,0.9637,0.9639,0.9646,0.977,0.9771,0.9781,0.9698,0.97,0.9701,0.9765,0,0.9103,0.9195,0.9219,0.9298,0.9345,0.9358,0.9404,0.9446,0.9472,0.9517,0.9547,0.9598,0.9591,0.9612,0.9646,0.968,0.9718,0.9676,0.9742,0.9744,0.9727,0.9792,0.9794,0.9853,0.9774,0.9775,0.9777,0,0.9185,0.9231,0.9314,0.9366,0.9386,0.9427,0.948,0.9522,0.957,0.9587,0.9625,0.964,0.9696,0.9677,0.9755,0.9725,0.9754,0.9774,0.9777,0.9784,0.9763,0.9802,0.9872,0.988,0.979,0.9789,0.9788,0,0.9216,0.9299,0.9359,0.9383,0.9445,0.9473,0.95,0.9546,0.9578,0.9625,0.9647,0.97,0.973,0.9772,0.9801,0.9784,0.9876,0.986,0.9893,0.9892,0.9912,0.991,0.9987,0.993,0.993,0.9929,0.9929,0,0.9281,0.9331,0.9373,0.941,0.9467,0.9495,0.9551,0.9579,0.9619,0.9663,0.9678,0.9719,0.9755,0.9801,0.9824,0.9885,0.9899,0.9914,0.992,0.9913,0.9911,0.9932,0.9929,0.9932,0.9931,0.9931,0.993,0,0.9325,0.9356,0.9422,0.9475,0.9489,0.9529,0.9574,0.9612,0.9638,0.9693,0.9707,0.9749,0.9804,0.9836,0.9906,0.9922,0.9989,0.9994,0.9973,0.9975,1.0006,1.0002,1.0099,1.0113,1.0046,1.0047,1.0047,0,0.9365,0.9403,0.946,0.9489,0.9516,0.9564,0.9596,0.9624,0.9658,0.9714,0.9745,0.98,0.9845,0.9932,0.997,1.0023,1.0029,1.0059,1.0037,1.0028,1.0029,1.0026,1.003,1.0063,1.0063,1.0064,1.0064,0,0.9431,0.9443,0.9489,0.9539,0.9577,0.9619,0.966,0.9684,0.9719,0.9756,0.9811,0.9846,0.9916,0.9971,1.0028,1.0057,1.0067,1.0071,1.0081,1.0074,1.006,1.0068,0.9983,1.0069,1.0068,1.0068,1.0068,1.0067,0.9474,0.9509,0.9553,0.9603,0.9637,0.9675,0.9712,0.9742,0.9788,0.9846,0.9861,0.9919,0.9965,1.0041,1.0072,1.0118,1.0114,1.0129,1.0133,1.0136,1.0136,1.0053,1.0129,1.0129,1.0129,1.0129,1.0129,0,0.9541,0.957,0.9615,0.9672,0.9711,0.9715,0.9761,0.9794,0.9844,0.9886,0.993,0.9993,1.0046,1.0087,1.0142,1.0171,1.0177,1.0184,1.0182,1.0189,1.0138,1.0123,1.0178,1.0178,1.0178,1.0178,1.0178,1.0178,0.958,0.9639,0.9657,0.9733,0.9762,0.9818,0.9843,0.9879,0.9912,0.9981,1.0025,1.005,1.0092,1.015,1.0199,1.0209,1.0229,1.0235,1.0247,1.0198,1.0193,1.0188,1.0174,1.0239,1.024,1.0295,1.0295,1.0296]},{"header":{"parameterUnit":"m.s-1","parameterCategory":1,"la1":30.2991,"la2":30.254,"lo1":-89.0895,"lo2":-89.0444,"dy":0.0017,"dx":0.0017,"nx":28,"ny":28,"refTime":"2023-07-28T03:00:00:Z","depth":0,"parameterNumber":3,"parameterNumberName":"V-component_of_WINDS"},"data":[0,0,0,0,0,0,0,0,0,0,0,0,0,0,0,0,0,0,0,0,0,0,0,0,0,0,0,0,0,0,0,0,0,0,0,0,0,0,0,0,0,0,0,0,0,0,0,0,0,0,0,0,0,0,0,0,0,0,2.2118,2.2118,0,2.2122,2.2122,2.2122,2.2133,2.2133,2.2133,2.2133,2.2135,2.2135,2.2134,0,0,0,0,0,0,0,0,0,0,0,0,0,2.2114,2.2114,2.2118,2.2118,2.2118,2.2122,2.2122,2.2122,2.2132,2.2133,2.2133,2.2133,2.2135,2.2135,2.2134,0,0,0,0,0,0,0,0,0,0,0,0,0,2.2117,2.2114,2.2118,2.2124,2.2124,2.2122,2.2122,2.2122,2.2132,2.2133,2.2133,2.2133,2.2135,2.2135,2.2134,2.2126,0,0,2.2134,2.2134,0,0,0,0,0,0,0,0,2.2117,2.2117,2.2123,2.2123,2.2124,2.2127,2.2121,2.2123,2.2132,2.2129,2.2133,2.2134,2.2132,2.2132,2.2132,2.2126,2.2126,2.2134,2.2133,2.2133,2.2133,0,0,0,0,0,0,0,2.2117,2.2117,2.212,2.2123,2.2124,2.2125,2.2125,2.2122,2.2128,2.213,2.213,2.2131,2.2132,2.2132,2.2132,2.2126,2.2134,2.2133,2.2133,2.2133,2.211,2.211,0,0,0,0,0,0,2.2116,2.2117,2.2119,2.212,2.2121,2.2124,2.2125,2.2126,2.2129,2.2129,2.2131,2.2131,2.2132,2.2132,2.2132,2.212,2.2133,2.2133,2.2133,2.2111,2.211,2.211,0,0,0,0,0,0,2.2116,2.2116,2.2119,2.2118,2.2119,2.2124,2.2125,2.2126,2.2126,2.2129,2.213,2.2129,2.2133,2.2132,2.2127,2.2121,2.2133,2.2133,2.2111,2.2111,2.211,2.2098,0,0,0,0,0,0,2.2116,2.2116,2.2114,2.2118,2.2119,2.2116,2.2124,2.2126,2.2125,2.2126,2.2129,2.2129,2.2133,2.2127,2.2127,2.212,2.2133,2.2112,2.2111,2.211,2.2099,2.2097,2.2095,0,0,0,0,0,2.2116,2.2111,2.2114,2.2114,2.2117,2.2115,2.2115,2.212,2.2125,2.2122,2.2124,2.2129,2.2121,2.2127,2.2126,2.212,2.2112,2.2111,2.211,2.21,2.2097,2.2095,0,0,0,0,0,0,2.2106,2.2112,2.2115,2.2112,2.2113,2.2117,2.2114,2.2118,2.2117,2.2118,2.2123,2.2124,2.2117,2.2118,2.2123,2.211,2.2117,2.2116,2.211,2.2107,2.2106,2.2105,2.2132,0,0,0,0,0,2.2104,2.2103,2.2107,2.2104,2.2104,2.2109,2.2108,2.2112,2.2113,2.2113,2.2115,2.2114,2.2111,2.211,2.2108,2.2099,2.2098,2.2094,2.2092,2.2091,2.2089,2.2082,2.2079,2.2106,2.2106,2.2106,0,0,2.2098,2.2101,2.2101,2.2102,2.2103,2.2101,2.2109,2.2107,2.2104,2.2112,2.2107,2.2108,2.2108,2.21,2.2097,2.21,2.2081,2.2089,2.2088,2.2088,2.208,2.2078,2.2076,2.2106,2.2106,2.2106,0,0,2.2088,2.2091,2.2087,2.2088,2.2089,2.2092,2.2091,2.2093,2.2094,2.2089,2.2094,2.209,2.2086,2.2085,2.2084,2.2069,2.2072,2.2068,2.2058,2.2051,2.2048,2.2047,2.2039,2.2036,2.2067,2.2067,2.2067,0,2.2081,2.2079,2.2085,2.2081,2.208,2.2087,2.2082,2.2082,2.2082,2.2081,2.2085,2.2078,2.2079,2.2069,2.2065,2.2065,2.2062,2.2068,2.2049,2.2047,2.2045,2.2038,2.2035,2.2066,2.2066,2.2066,2.2066,0,2.2069,2.2067,2.2064,2.2064,2.2063,2.2058,2.2061,2.2059,2.2062,2.2063,2.2056,2.2056,2.2053,2.2051,2.2054,2.2041,2.2043,2.2048,2.2055,2.2042,2.2035,2.2032,2.2065,2.2065,2.2065,2.2066,0,0,2.2054,2.2056,2.2054,2.2053,2.2054,2.2051,2.2046,2.2043,2.204,2.2039,2.2033,2.2028,2.2031,2.203,2.2032,2.2026,2.2011,2.2031,2.2031,2.2026,2.1993,2.1988,2.1985,2.2013,2.2013,2.2012,2.1992,0,2.2043,2.2035,2.2039,2.203,2.2026,2.2031,2.2026,2.2025,2.2025,2.202,2.202,2.2016,2.2022,2.2021,2.2015,2.2014,2.2004,2.2016,2.2005,2.2005,2.2004,2.1982,2.1978,2.1959,2.199,2.1989,2.1989,0,2.2029,2.2027,2.2018,2.2016,2.2015,2.2011,2.2006,2.2003,2.2,2.2,2.1997,2.2,2.1992,2.2,2.1987,2.1995,2.1991,2.1989,2.1988,2.1987,2.1996,2.1978,2.1953,2.195,2.1985,2.1986,2.1986,0,2.2017,2.2012,2.2005,2.2004,2.2003,2.1999,2.1998,2.1996,2.1992,2.1988,2.1985,2.198,2.1977,2.1971,2.1971,2.1978,2.1958,2.1966,2.1956,2.1955,2.1951,2.1951,2.1924,2.1951,2.1951,2.1951,2.1951,0,2.2004,2.1997,2.1999,2.1995,2.1987,2.1989,2.1981,2.198,2.1977,2.1971,2.1975,2.1968,2.1969,2.1962,2.1962,2.195,2.1949,2.1947,2.1947,2.1946,2.1946,2.1943,2.1944,2.195,2.195,2.195,2.195,0,2.1989,2.1991,2.1983,2.1981,2.1981,2.1974,2.1972,2.1966,2.1966,2.1958,2.1956,2.1955,2.1946,2.1946,2.1936,2.1936,2.192,2.1922,2.1921,2.1921,2.191,2.191,2.1878,2.1873,2.1905,2.1905,2.1904,0,2.1981,2.1975,2.1973,2.1969,2.1967,2.1962,2.1958,2.1959,2.1955,2.1949,2.1943,2.1935,2.1929,2.1914,2.1911,2.1903,2.1904,2.1893,2.1902,2.19,2.1901,2.19,2.1898,2.1891,2.189,2.189,2.189,0,2.1964,2.1964,2.1959,2.1953,2.1949,2.1944,2.194,2.1936,2.1936,2.1931,2.1922,2.1917,2.1906,2.1896,2.1887,2.1884,2.1886,2.1887,2.1883,2.1882,2.1881,2.1879,2.1914,2.1888,2.1888,2.1888,2.1888,2.1888,2.1951,2.1945,2.1942,2.1935,2.1932,2.1927,2.192,2.1918,2.1911,2.1903,2.1903,2.1893,2.1886,2.1874,2.187,2.186,2.1863,2.1859,2.1858,2.1856,2.1854,2.1883,2.1859,2.1859,2.1859,2.1859,2.1859,0,2.1933,2.193,2.1924,2.1917,2.1911,2.1913,2.1908,2.1902,2.1893,2.1887,2.188,2.1867,2.1857,2.1853,2.1842,2.1835,2.1835,2.1832,2.1831,2.183,2.1853,2.1856,2.1831,2.1831,2.1831,2.1831,2.1831,2.1831,2.1923,2.1913,2.1912,2.1898,2.1895,2.1885,2.1881,2.1875,2.187,2.1857,2.1848,2.1845,2.1839,2.1827,2.1817,2.1815,2.181,2.1806,2.1804,2.1826,2.1829,2.1831,2.1834,2.1805,2.1805,2.1782,2.1782,2.1782]}]]